Location: Newark
(42.7133°N, 87.7910°W)
Time: 05:44:18
(UTC+00:00)

Vanguard 1 - Pass Details

Date: 22 September 2019
Orbit: 653 x 3830 km, 34.2° (Epoch: 18 October)

Event Time Altitude Azimuth Distance (km) Brightness Sun altitude
Rises 07:16:44 0° 232° (SW) 7,530 - -42.1°
Reaches altitude 10° 07:21:42 10° 228° (SW) 6,720 - -41.6°
Exits shadow 07:40:30 52° 183° (S) 4,309 12.8 -39.6°
Maximum altitude 07:43:58 55° 159° (SSE) 4,137 12.8 -39.2°
Drops below altitude 10° 08:02:02 10° 88° (E) 5,613 14.3 -36.9°
Sets 08:05:42 0° 84° (E) 6,282 14.8 -36.5°
